Location: Les Chemineaux
(47.3024°N, 1.5104°E)
Time: 20:23:40
(UTC+00:00)

SL-16 R/B - Pass Details

Date: 19 May 2025
Orbit: 841 x 844 km, 71.0° (Epoch: 18 June)

Event Time Altitude Azimuth Distance (km) Brightness Sun altitude
Rises 22:40:55 0° 334° (NNW) 3,414 6.9 -20.9°
Reaches altitude 10° 22:43:25 10° 338° (NNW) 2,475 5.8 -21.0°
Maximum altitude 22:49:03 61° 59° (ENE) 958 2.5 -21.3°
Enters shadow 22:51:18 36° 124° (SE) 1,324 2.8 -21.4°
